Arden, NC

3:33 AM EST on December 09, 2016 (GMT -0500)
Asheville Regional

Weather History for KAVL - July, 2006

Change the Weather History Date:

Wednesday, July 12, 2006

  Actual Average Record
Temperature  
Mean Temperature 74 °F 74 °F  
Max Temperature 86 °F 84 °F 93 °F (1980)
Min Temperature 64 °F 64 °F 50 °F (1891)
Degree Days  
Heating Degree Days 0 0  
Month to date heating degree days 0  
Since 1 June heating degree days 14  
Since 1 July heating degree days 0  
Cooling Degree Days 9 9  
Month to date cooling degree days 104  
Year to date cooling degree days 339  
Since 1 June cooling degree days 281  
Growing Degree Days 24 (Base 50)    
Moisture  
Dew Point 65 °F    
Average Humidity 83    
Maximum Humidity 100    
Minimum Humidity 48    
Precipitation  
Precipitation 0.00 in 0.13 in 1.64 in (1959)
Month to date precipitation 1.70  
Year to date precipitation 24.60  
Snow  
Snow 0.00 in 0.00 in 0.00 in ()
Month to date snowfall 0.0  
Since 1 June snowfall 0.0  
Since 1 July snowfall 0.0  
Snow Depth -    
Sea Level Pressure  
Sea Level Pressure 30.20 in    
Wind  
Wind Speed 2 mph (SSE)    
Max Wind Speed 13 mph    
Max Gust Speed 17 mph    
Visibility 5 miles    
Events Fog    
T = Trace of Precipitation, MM = Missing Value Source: NWS Daily Summary

Daily Weather History Graph

Daily Weather History Graph

Search for Another Location

Airport or City:

Trip Planner

Search our weather history database for the weather conditions in past years. The results will help you decide how hot, cold, wet, or windy it might be!

Date:

Astronomy

Jul. 12, 2006 Rise Set
Actual Time 6:24 AM EDT 8:46 PM EDT
Civil Twilight 5:55 AM EDT 9:16 PM EDT
Nautical Twilight 5:18 AM EDT 9:52 PM EDT
Astronomical Twilight 4:39 AM EDT 10:31 PM EDT
Moon 10:27 PM EDT (7/12) 7:50 AM EDT (7/12)
Length of Visible Light 15h 21m
Length of Day
14h 22m
Full, 97% of the Moon is Illuminated
Jul 12
Full
Jul 17
Last Quarter
Jul 25
New
Aug 2
First Quarter
Aug 9
Full

Hourly Weather History & Observations

Time (EDT) Temp. Heat Index Dew Point Humidity Pressure Visibility Wind Dir Wind Speed Gust Speed Precip Events Conditions
12:54 AM 69.1 °F - 66.9 °F 93% 30.19 in 3.0 mi Calm Calm - N/A   Clear
1:54 AM 69.1 °F - 66.9 °F 93% 30.18 in 3.0 mi SE 3.5 mph - N/A   Clear
2:54 AM 68.0 °F - 66.0 °F 93% 30.17 in 3.0 mi Calm Calm - N/A   Clear
3:07 AM 66.2 °F - 64.4 °F 94% 30.25 in 2.0 mi SE 3.5 mph - N/A   Clear
3:39 AM 66.2 °F - 64.4 °F 94% 30.24 in 1.2 mi SSE 3.5 mph - N/A   Clear
3:47 AM 66.2 °F - 64.4 °F 94% 30.24 in 0.5 mi Calm Calm - N/A Fog Fog
3:54 AM 66.9 °F - 64.9 °F 93% 30.18 in 1.5 mi Calm Calm - N/A   Clear
4:00 AM 66.2 °F - 64.4 °F 94% 30.25 in 2.5 mi Calm Calm - N/A   Partly Cloudy
4:19 AM 66.2 °F - 64.4 °F 94% 30.25 in 1.8 mi SSE 4.6 mph - N/A   Mostly Cloudy
4:24 AM 66.2 °F - 64.4 °F 94% 30.25 in 0.8 mi SSE 4.6 mph - N/A   Mostly Cloudy
4:41 AM 66.2 °F - 64.4 °F 94% 30.25 in 1.0 mi Calm Calm - N/A   Overcast
4:54 AM 66.9 °F - 64.9 °F 93% 30.18 in 1.8 mi Calm Calm - N/A   Overcast
5:13 AM 66.2 °F - 64.4 °F 94% 30.25 in 0.8 mi SSE 3.5 mph - N/A   Mostly Cloudy
5:26 AM 64.4 °F - 64.4 °F 100% 30.25 in 0.2 mi Calm Calm - N/A Fog Fog
5:45 AM 64.4 °F - 64.4 °F 100% 30.26 in 0.5 mi SW 3.5 mph - N/A Fog Fog
5:54 AM 64.9 °F - 64.0 °F 97% 30.19 in 1.8 mi SE 3.5 mph - N/A   Scattered Clouds
6:10 AM 64.4 °F - 64.4 °F 100% 30.26 in 3.0 mi SSE 3.5 mph - N/A   Clear
6:54 AM 66.0 °F - 64.0 °F 93% 30.20 in 2.5 mi Calm Calm - N/A   Scattered Clouds
7:54 AM 68.0 °F - 64.9 °F 90% 30.20 in 2.5 mi Calm Calm - N/A   Overcast
8:01 AM 69.8 °F - 64.4 °F 83% 30.28 in 3.0 mi Calm Calm - N/A   Overcast
8:54 AM 70.0 °F - 66.0 °F 87% 30.22 in 3.0 mi Calm Calm - N/A   Scattered Clouds
9:54 AM 73.0 °F - 66.9 °F 81% 30.21 in 4.0 mi Calm Calm - N/A   Haze
10:54 AM 77.0 °F - 68.0 °F 74% 30.20 in 6.0 mi Variable 3.5 mph - N/A   Haze
11:54 AM 79.0 °F - 66.0 °F 64% 30.19 in 9.0 mi South 6.9 mph - N/A   Clear
12:54 PM 82.9 °F 85.0 °F 66.0 °F 56% 30.18 in 10.0 mi South 11.5 mph 17.3 mph N/A   Clear
1:54 PM 84.9 °F 86.6 °F 64.9 °F 51% 30.16 in 10.0 mi South 12.7 mph - N/A   Clear
2:54 PM 84.9 °F 85.9 °F 63.0 °F 48% 30.14 in 10.0 mi South 10.4 mph - N/A   Mostly Cloudy
3:54 PM 81.0 °F 82.2 °F 63.0 °F 54% 30.14 in 10.0 mi South 4.6 mph - N/A   Mostly Cloudy
4:54 PM 82.0 °F 84.1 °F 66.0 °F 58% 30.13 in 10.0 mi South 6.9 mph - N/A   Clear
5:54 PM 75.9 °F - 62.1 °F 62% 30.13 in 10.0 mi Variable 4.6 mph - N/A   Overcast
6:54 PM 75.9 °F - 64.9 °F 69% 30.12 in 8.0 mi Variable 3.5 mph - N/A   Mostly Cloudy
7:54 PM 75.0 °F - 64.9 °F 71% 30.11 in 10.0 mi Calm Calm - N/A   Scattered Clouds
8:54 PM 73.9 °F - 64.9 °F 73% 30.12 in 8.0 mi SE 3.5 mph - N/A   Clear
9:54 PM 71.6 °F - 66.2 °F 83% 30.21 in 8.0 mi ESE 3.5 mph - N/A   Clear
10:54 PM 70.0 °F - 66.0 °F 87% 30.14 in 7.0 mi Calm Calm - N/A   Clear
11:54 PM 69.1 °F - 64.9 °F 87% 30.14 in 6.0 mi Calm Calm - N/A   Clear